• In Uzbekistan
  • List of Countries
  • For 7 days
  • Water Temperature
  • Satellite Maps
  • Weather Map
  • Weather Widgets
  • user-avatar
    Login

    Hourly Weather Vejle

    Today, 20 June, Wednesday

    Time Temperature Precipitation Wind Pressure Humidity
    00:00 +10°C° 0 mm 3 mps 757 mmHg 86%
    01:00 +10°C° 0 mm 3 mps 757 mmHg 87%
    02:00 +10°C° 0 mm 3 mps 757 mmHg 85%
    03:00 +11°C° 0 mm 3 mps 757 mmHg 84%
    04:00 +12°C° 0 mm 3 mps 756 mmHg 82%
    05:00 +12°C° 0.1 mm 4 mps 756 mmHg 85%
    06:00 +13°C° 0.1 mm 5 mps 756 mmHg 89%
    07:00 +14°C° 0.1 mm 6 mps 755 mmHg 92%
    08:00 +15°C° 0.1 mm 7 mps 755 mmHg 90%
    09:00 +17°C° 0.1 mm 8 mps 754 mmHg 88%
    10:00 +18°C° 0.1 mm 9 mps 754 mmHg 85%
    11:00 +19°C° 0 mm 9 mps 754 mmHg 81%
    12:00 +19°C° 0 mm 10 mps 753 mmHg 76%
    13:00 +21°C° 0 mm 10 mps 753 mmHg 72%
    14:00 +21°C° 0 mm 10 mps 753 mmHg 74%
    15:00 +19°C° 0 mm 10 mps 752 mmHg 76%
    16:00 +19°C° 0 mm 9 mps 752 mmHg 78%
    17:00 +18°C° 0.1 mm 9 mps 752 mmHg 82%
    18:00 +17°C° 0.1 mm 8 mps 751 mmHg 85%
    19:00 +16°C° 0.1 mm 7 mps 751 mmHg 88%
    20:00 +16°C° 0.1 mm 7 mps 751 mmHg 89%
    21:00 +15°C° 0.1 mm 7 mps 751 mmHg 90%
    22:00 +15°C° 0.1 mm 7 mps 751 mmHg 91%
    23:00 +15°C° 0 mm 6 mps 751 mmHg 90%

    Tomorrow, 21 June, Thursday

    Time Temperature Precipitation Wind Pressure Humidity
    00:00 +14°C° 0 mm 6 mps 751 mmHg 89%
    01:00 +13°C° 0 mm 5 mps 750 mmHg 88%
    02:00 +13°C° 0 mm 5 mps 750 mmHg 87%
    03:00 +12°C° 0 mm 4 mps 750 mmHg 86%
    04:00 +12°C° 0 mm 4 mps 750 mmHg 86%
    05:00 +12°C° 0.1 mm 4 mps 749 mmHg 85%
    06:00 +12°C° 0.1 mm 4 mps 749 mmHg 84%
    07:00 +12°C° 0.1 mm 4 mps 749 mmHg 83%
    08:00 +12°C° 0.3 mm 4 mps 749 mmHg 82%
    09:00 +12°C° 0.3 mm 4 mps 749 mmHg 80%
    10:00 +12°C° 0.3 mm 5 mps 749 mmHg 79%
    11:00 +13°C° 0.4 mm 5 mps 749 mmHg 75%
    12:00 +13°C° 0.4 mm 6 mps 749 mmHg 72%
    13:00 +13°C° 0.4 mm 6 mps 748 mmHg 69%
    14:00 +12°C° 0.3 mm 7 mps 749 mmHg 67%
    15:00 +12°C° 0.3 mm 8 mps 749 mmHg 65%
    16:00 +12°C° 0.3 mm 9 mps 749 mmHg 63%
    17:00 +12°C° 0.1 mm 9 mps 749 mmHg 66%
    18:00 +11°C° 0.1 mm 9 mps 749 mmHg 70%
    19:00 +11°C° 0.1 mm 8 mps 749 mmHg 73%
    20:00 +10°C° 0.1 mm 8 mps 749 mmHg 76%
    21:00 +9°C° 0.1 mm 7 mps 749 mmHg 79%
    22:00 +9°C° 0.1 mm 7 mps 749 mmHg 82%
    23:00 +9°C° 0 mm 7 mps 749 mmHg 82%

    Day after tomorrow, 22 June, Friday

    Time Temperature Precipitation Wind Pressure Humidity
    00:00 +9°C° 0 mm 7 mps 749 mmHg 82%
    01:00 +9°C° 0 mm 7 mps 749 mmHg 82%
    02:00 +9°C° 0 mm 7 mps 749 mmHg 81%
    03:00 +9°C° 0 mm 7 mps 750 mmHg 80%
    04:00 +9°C° 0 mm 7 mps 750 mmHg 79%
    05:00 +10°C° 0 mm 7 mps 751 mmHg 77%
    06:00 +11°C° 0 mm 7 mps 751 mmHg 75%
    07:00 +12°C° 0 mm 7 mps 752 mmHg 74%
    08:00 +14°C° 0 mm 7 mps 752 mmHg 71%
    09:00 +15°C° 0 mm 7 mps 752 mmHg 68%
    10:00 +15°C° 0 mm 7 mps 753 mmHg 65%
    11:00 +15°C° 0 mm 8 mps 753 mmHg 65%
    12:00 +16°C° 0 mm 8 mps 753 mmHg 65%
    13:00 +16°C° 0 mm 9 mps 753 mmHg 64%
    14:00 +16°C° 0 mm 9 mps 753 mmHg 64%
    15:00 +16°C° 0 mm 9 mps 753 mmHg 63%
    16:00 +16°C° 0 mm 9 mps 752 mmHg 63%
    17:00 +15°C° 0 mm 9 mps 752 mmHg 63%
    18:00 +15°C° 0 mm 9 mps 752 mmHg 64%
    19:00 +13°C° 0 mm 9 mps 752 mmHg 64%
    20:00 +12°C° 0 mm 9 mps 753 mmHg 63%
    21:00 +11°C° 0 mm 9 mps 753 mmHg 62%
    22:00 +11°C° 0 mm 10 mps 753 mmHg 61%
    23:00 +10°C° 0 mm 9 mps 753 mmHg 61%

    23 June, Saturday

    Time Temperature Precipitation Wind Pressure Humidity
    00:00 +10°C° 0 mm 9 mps 753 mmHg 60%
    01:00 +10°C° 0 mm 9 mps 753 mmHg 60%
    02:00 +10°C° 0 mm 8 mps 753 mmHg 63%
    03:00 +10°C° 0 mm 8 mps 753 mmHg 67%
    04:00 +10°C° 0 mm 8 mps 753 mmHg 71%
    05:00 +10°C° 0 mm 8 mps 753 mmHg 71%
    06:00 +11°C° 0 mm 8 mps 754 mmHg 72%
    07:00 +12°C° 0 mm 9 mps 754 mmHg 73%
    08:00 +13°C° 0 mm 9 mps 754 mmHg 72%
    09:00 +13°C° 0 mm 8 mps 754 mmHg 71%
    10:00 +15°C° 0 mm 8 mps 754 mmHg 70%
    11:00 +15°C° 0 mm 8 mps 755 mmHg 68%
    12:00 +16°C° 0 mm 8 mps 755 mmHg 67%
    13:00 +16°C° 0 mm 8 mps 755 mmHg 65%
    14:00 +16°C° 0 mm 8 mps 755 mmHg 66%
    15:00 +16°C° 0 mm 7 mps 755 mmHg 67%
    16:00 +16°C° 0 mm 7 mps 755 mmHg 68%
    17:00 +16°C° 0 mm 7 mps 755 mmHg 72%
    18:00 +15°C° 0 mm 7 mps 755 mmHg 75%
    19:00 +14°C° 0 mm 7 mps 755 mmHg 79%
    20:00 +13°C° 0 mm 6 mps 756 mmHg 82%
    21:00 +13°C° 0 mm 5 mps 756 mmHg 85%
    22:00 +12°C° 0 mm 5 mps 756 mmHg 88%
    23:00 +10°C° 0 mm 5 mps 756 mmHg 89%

    24 June, Sunday

    Time Temperature Precipitation Wind Pressure Humidity
    00:00 +10°C° 0 mm 5 mps 756 mmHg 90%
    01:00 +10°C° 0 mm 5 mps 756 mmHg 91%
    02:00 +11°C° 0 mm 4 mps 756 mmHg 90%
    03:00 +10°C° 0 mm 4 mps 756 mmHg 90%
    04:00 +10°C° 0 mm 4 mps 756 mmHg 90%
    05:00 +12°C° 0 mm 4 mps 756 mmHg 87%
    06:00 +13°C° 0 mm 5 mps 756 mmHg 83%
    07:00 +14°C° 0 mm 5 mps 757 mmHg 79%
    08:00 +15°C° 0 mm 5 mps 757 mmHg 76%
    09:00 +16°C° 0 mm 5 mps 757 mmHg 73%
    10:00 +18°C° 0 mm 4 mps 757 mmHg 71%
    11:00 +18°C° 0 mm 4 mps 758 mmHg 70%
    12:00 +19°C° 0 mm 5 mps 758 mmHg 69%
    13:00 +19°C° 0 mm 5 mps 758 mmHg 68%
    14:00 +19°C° 0 mm 5 mps 758 mmHg 69%
    15:00 +19°C° 0 mm 5 mps 758 mmHg 70%
    16:00 +19°C° 0 mm 5 mps 758 mmHg 71%
    17:00 +19°C° 0 mm 5 mps 758 mmHg 73%
    18:00 +17°C° 0 mm 5 mps 758 mmHg 75%
    19:00 +17°C° 0 mm 5 mps 758 mmHg 77%
    20:00 +15°C° 0 mm 5 mps 758 mmHg 79%
    21:00 +14°C° 0 mm 5 mps 758 mmHg 82%
    22:00 +13°C° 0 mm 5 mps 758 mmHg 84%
    23:00 +13°C° 0 mm 5 mps 759 mmHg 84%

    25 June, Monday

    Time Temperature Precipitation Wind Pressure Humidity
    00:00 +13°C° 0 mm 5 mps 759 mmHg 84%
    01:00 +12°C° 0 mm 5 mps 759 mmHg 83%
    02:00 +12°C° 0 mm 5 mps 759 mmHg 85%
    03:00 +12°C° 0 mm 5 mps 759 mmHg 87%
    04:00 +12°C° 0 mm 5 mps 759 mmHg 89%
    05:00 +13°C° 0 mm 5 mps 759 mmHg 84%
    06:00 +14°C° 0 mm 6 mps 759 mmHg 79%
    07:00 +15°C° 0 mm 6 mps 759 mmHg 74%
    08:00 +16°C° 0 mm 6 mps 759 mmHg 70%
    09:00 +17°C° 0 mm 6 mps 759 mmHg 66%
    10:00 +19°C° 0 mm 5 mps 760 mmHg 62%
    11:00 +20°C° 0 mm 6 mps 760 mmHg 60%
    12:00 +20°C° 0 mm 6 mps 760 mmHg 59%
    13:00 +21°C° 0 mm 6 mps 760 mmHg 57%
    14:00 +21°C° 0 mm 6 mps 760 mmHg 57%
    15:00 +20°C° 0 mm 6 mps 760 mmHg 57%
    16:00 +20°C° 0 mm 6 mps 760 mmHg 58%
    17:00 +19°C° 0 mm 5 mps 760 mmHg 61%
    18:00 +19°C° 0 mm 5 mps 760 mmHg 65%
    19:00 +18°C° 0 mm 4 mps 760 mmHg 68%
    20:00 +15°C° 0 mm 4 mps 761 mmHg 73%
    21:00 +13°C° 0 mm 4 mps 761 mmHg 78%
    22:00 +12°C° 0 mm 4 mps 761 mmHg 82%
    23:00 +11°C° 0 mm 4 mps 761 mmHg 84%
    Show more